Location: Franzen
(48.6167°N, 15.3833°E)
Time: 21:36:29
(UTC+00:00)

Cosmos 1709 Rocket - Pass Details

Date: 06 August 2021
Orbit: 947 x 1002 km, 82.9° (Epoch: 22 September)

Event Time Altitude Azimuth Distance (km) Brightness Sun altitude
Exits shadow 22:06:50 44° 131° (SE) 1,358 4.3 -23.7°
Maximum altitude 22:08:17 52° 91° (E) 1,227 4.3 -23.8°
Drops below altitude 10° 22:14:27 10° 17° (NNE) 2,787 7.2 -24.0°
Sets 22:17:03 0° 13° (NNE) 3,740 8.1 -24.1°
